AirNav   ProFlight Series 2 Aviation Headset
 
 912 users online  

KTNT Dade-Collier Training and Transition Airport
Miami, Florida, USA

GOING TO MIAMI?


FAA INFORMATION EFFECTIVE 08 OCTOBER 2020

Location

FAA Identifier: TNT
Lat/Long: 25-51-42.5000N 080-53-49.2000W
25-51.708333N 080-53.820000W
25.8618056,-80.8970000
(estimated)
Elevation: 12.7 ft. / 3.9 m (surveyed)
Variation: 05W (2005)
From city: 36 miles W of MIAMI, FL
Time zone: UTC -4 (UTC -5 during Standard Time)
Zip code: 34141

Airport Operations

Airport use: Open to the public, ARPT CLSD TO PUBLIC EXCP BY ARRANGEMENT WITH MIAMI-DADE AVIATION DEPT MIAMI 305-869-1660.
Control tower: no
ARTCC: MIAMI CENTER
FSS: MIAMI FLIGHT SERVICE STATION
NOTAMs facility: MIA (NOTAM-D service available)
Attendance: CONTINUOUS
Wind indicator: lighted
Segmented circle: yes
Beacon: white-green (lighted land airport)
Operates sunset to sunrise.
Landing fee: yes

Airport Communications

CTAF/UNICOM: 123.0
WX AWOS-3: 119.075 ((239) 695-9198)
MIAMI APPROACH: 128.6
MIAMI DEPARTURE: 128.6
  • APCH/DEP SVC PRVDD BY MIAMI ATCT ON FREQS 128.6/306.975

Nearby radio navigation aids

VOR radial/distance  VOR name  Freq  Var
DHPr281/29.8DOLPHIN VORTAC113.9004W

Airport Services

Airframe service: NONE
Powerplant service: NONE
Bottled oxygen: NONE
Bulk oxygen: NONE

Runway Information

Runway 9/27

Dimensions: 10499 x 150 ft. / 3200 x 46 m
Surface: asphalt/porous friction courses, in good condition
Weight bearing capacity: 
PCN 65 /F/A/X/T
Single wheel: 130.0
Double wheel: 200.0
Double tandem: 400.0
Dual double tandem: 800.0
Runway edge lights: high intensity
RUNWAY 9  RUNWAY 27
Latitude: 25-51.708232N25-51.707022N
Longitude: 080-54.777252W080-52.861753W
Elevation: 12.6 ft.12.4 ft.
Traffic pattern: leftright
Runway heading: 095 magnetic, 090 true275 magnetic, 270 true
Markings: precision, in good conditionprecision, in good condition
Approach lights: MALSR: 1,400 foot medium intensity approach lighting system with runway alignment indicator lights
Touchdown point: yes, no lightsyes, no lights
Instrument approach: ILS
Obstructions: none26 ft. trees, 1075 ft. from runway, 290 ft. right of centerline, 34:1 slope to clear

Airport Ownership and Management from official FAA records

Ownership: Publicly-owned
Owner: MIAMI-DADE COUNTY
MIAMI-DADE AVIATION DEPARTMENT, P.O. BOX 025504
MIAMI, FL 33102-5504
Phone (305) 876-0464
Manager: ROOPNARINE NANDAN
14201 NORTHWEST LEJEUNE ROAD
OPA-LOCKA, FL 33054
Phone (305) 869-1662
AIRPORT PHYSICAL ADDRESS: 54757 EAST TAMIAMI TRAIL, OCHOPPI, FL 34141 239-695-3300, FAX: 305-876-0565

Airport Operational Statistics

Aircraft operations: avg 40/day *
100% transient general aviation
* for 12-month period ending 10 October 2018

Additional Remarks

A100 ACR TRNG OPNS ONLY.
THREE 8IN WELLS FLUSH MTD BTN RWY AND TWY.
FEE FOR USE FOR ACFT OVER 12500 LBS.
MAEW IN BUFFER ISLAND BTN RY 09/27 & TWY.
WILDLIFE OCCASIONALLY ON & INVOF ARPT.
BE ALERT TO LOW FLYING NATIONAL PARK SVC ACFT ALL QUADRANTS.
NO NGT TIME OPNS EXC WITH PRIOR PMSN FM MIAMI-DADE AVN DEPT 305-869-1660.
FOR CD IF UNA TO CTC ON FSS FREQ, CTC MIAMI APCH AT 305-869-5432.

Instrument Procedures

NOTE: All procedures below are presented as PDF files. If you need a reader for these files, you should download the free Adobe Reader.

NOT FOR NAVIGATION. Please procure official charts for flight.
FAA instrument procedures published for use from 08 October 2020 at 0901Z to 05 November 2020 at 0900Z.

 
IAPs - Instrument Approach Procedures
RNAV (GPS) RWY 09   download (250KB)

Other nearby airports with instrument procedures:

KTMB - Miami Executive Airport (28 nm SE)
X51 - Miami Homestead General Aviation Airport (29 nm SE)
KMIA - Miami International Airport (33 nm E)
KOPF - Miami-Opa Locka Executive Airport (34 nm E)
KHST - Homestead Air Reserve Base (36 nm SE)
 
Loc | Ops | Rwys | IFR | FBO | Links
Com | Nav | Svcs | Stats | Notes

Reliance Aviation
AirBoss

 
Area around KTNT (Dade-Collier Training and Transition Airport)
 
Road maps at: MapQuest Bing Google
 
Aerial photo
WARNING: Photo may not be current or correct
Aerial photo of KTNT (Dade-Collier Training and Transition Airport)
Do you have a better or more recent aerial photo of Dade-Collier Training and Transition Airport that you would like to share? If so, please send us your photo.

 
Sectional chart

 
Airport distance calculator
Flying to Dade-Collier Training and Transition Airport? Find the distance to fly.

From to KTNT

Sunrise and sunset
Times for 25-Oct-2020
 Local
(UTC-4)
 Zulu
(UTC)
Morning civil twilight07:0611:06
Sunrise07:2911:29
Sunset18:4622:46
Evening civil twilight19:0923:09

Current date and time
Zulu (UTC)  26-Oct-2020 02:56:28
Local (UTC-4)  25-Oct-2020 22:56:28
 
METAR
KTMB 
28nm SE 
260241Z 16005KT 7SM -RA SCT007 BKN040 OVC060 24/24 A2995 RMK AO2 RAB08 P0002 T02440244 $
KMIA 
32nm E 
260232Z 02004KT 8SM -RA BKN025CB OVC036 26/24 A2995 RMK AO2 LTG DSNT E RAB30 PRESRR CB OHD-SE-SW MOV N P0000 T02610244 $
KOPF 
33nm E 
260153Z 12003KT 10SM -RA FEW070 BKN100 OVC120 26/24 A2993 RMK AO2 LTG DSNT S RAB0056 SLP136 P0005 T02560239
KHWO 
37nm E 
260153Z AUTO 13007KT 6SM RA BR OVC100 26/26 A2994 RMK AO2 RAB12 SLP138 P0004 T02610261
KHST 
37nm SE 
260236Z AUTO 00000KT 10SM FEW004 BKN015 OVC060 25/24 A2995 RMK AO2 RAE32DZB32E36 SLP145
KFLL 
42nm E 
260153Z 19004KT 10SM SCT015 BKN035 BKN100 27/27 A2993 RMK AO2 RAE03 SLP133 P0000 T02670267 $
KMKY 
43nm W 
260156Z AUTO 00000KT 10SM FEW090 25/24 A2993 RMK AO2 SLP135 T02500239 TSNO $
KFXE 
43nm NE 
260219Z 15003KT 10SM SCT013 26/24 A2992 RMK AO2 T02560244
KIMM 
44nm NW 
260235Z AUTO 03004KT 10SM BKN095 24/24 A2993 RMK AO2 PWINO
KPMP 
48nm NE 
260153Z AUTO 17007KT 10SM BKN100 27/26 A2993 RMK AO2 RAB0055E08 SLP135 P0000 T02670256 $
TAF
KTMB 
28nm SE 
252056Z 2521/2618 16012KT P6SM VCTS SCT020CB BKN040 FM252200 13009KT P6SM VCSH SCT015 SCT050 BKN200 FM261400 14012KT P6SM VCSH SCT015 SCT035 BKN150
KMIA 
32nm E 
260216Z 2602/2706 13009KT P6SM VCSH SCT015 SCT050 BKN200 TEMPO 2602/2603 VRB10G20KT 3SM SHRA SCT015 BKN025 FM261400 14012KT P6SM VCSH SCT015 SCT035 BKN150 FM262100 15010KT P6SM BKN100 PROB30 2621/2624 P6SM -SHRA BKN050
KOPF 
33nm E 
260216Z 2602/2624 13009KT P6SM VCSH SCT015 SCT050 BKN200 TEMPO 2602/2603 VRB10G20KT 3SM SHRA SCT015 BKN025 FM261400 14012KT P6SM VCSH SCT015 SCT035 BKN150 FM262100 15010KT P6SM BKN100 PROB30 2621/2623 P6SM -SHRA BKN050
NOTAMs
Click for the latest NOTAMs
NOTAMs are issued by the DoD/FAA and will open in a separate window not controlled by AirNav.

 

 
 

Would you like to see your business listed on this page?

 If your business provides an interesting product or service to pilots, flight crews, aircraft, or users of the Dade-Collier Training and Transition Airport, you should consider listing it here.  To start the listing process, click on the button below
 
Add a business
 

Other Pages about Dade-Collier Training and Transition Airport

Update a link
 
Copyright © AirNav, LLC. All rights reserved. Privacy Policy  Contact